Regional Weather Roundup
Issued by NWS Upton, NY

Current Version | Previous Version | Text Only | Print | Product List | Glossary On
Versions: 1 2 3 4 5 6 7 8 9 10 11 12 13 14 15 16 17 18 19 20 21 22 23 24 25 26 27 28 29 30 31 32 33 34 35 36 37 38 39 40 41 42 43 44 45 46 47 48 49 50
000 ASUS41 KOKX 171208 RWROKX REGIONAL WEATHER ROUNDUP NATIONAL WEATHER SERVICE NEW YORK NY 800 AM EDT THU AUG 17 2017 NOTE: "FAIR" INDICATES FEW OR NO CLOUDS BELOW 12,000 FEET WITH NO SIGNIFICANT WEATHER AND/OR OBSTRUCTIONS TO VISIBILITY. NYZ071-072-176-178-NJZ106-104-171300- NEW YORK CITY METRO AREA CITY SKY/WX TMP DP RH WIND PRES REMARKS Central Park CLOUDY 71 57 61 VRB3 30.11R Bronx Bot Gard N/A 72 55 56 CALM 30.11R LaGuardia APRT PTSUNNY 71 57 61 NE9G21 30.07R Kennedy INTL PTSUNNY 72 61 68 NE8 30.08R Breezy Point N/A 70 N/A N/A NE7 N/A Newark/Liberty PTSUNNY 70 58 65 N10 30.07R Teterboro PTSUNNY 71 58 63 N7 30.07R $$ NYZ177-179-078>081-171300- LONG ISLAND NEW YORK CITY SKY/WX TMP DP RH WIND PRES REMARKS Jones Beach N/A 70 N/A N/A NE9 N/A Matinecock PT N/A 68 N/A N/A E14 N/A Farmingdale CLOUDY 70 61 73 NE3 30.08R MacArthur/ISP PTSUNNY 72 56 57 E7 30.08R Shirley PTSUNNY 71 60 68 CALM 30.09R Mt Sinai Harb N/A 72 N/A N/A NE7 N/A Westhampton PTSUNNY 68 53 58 E9 30.10R East Hampton FAIR 67 54 63 NE5 30.08R Montauk N/A 69 53 56 NE8 30.09R $$ NYZ052-065-067-171300- HUDSON VALLEY CITY SKY/WX TMP DP RH WIND PRES REMARKS White Plains PTSUNNY 68 54 60 NE7 30.09R Larchmont Harb N/A 68 N/A N/A N8 N/A Croton On Huds N/A 68 N/A N/A MISG N/A Newburgh MOSUNNY 64 57 77 VRB5 30.11R Montgomery MOSUNNY 64 59 83 NE3 30.10R Poughkeepsie MOSUNNY 60 56 86 E3 30.09R Albany PTSUNNY 59 53 80 CALM 30.11R $$ NJZ001-105-106-008-010-013-015-019>022-104-171300- NEW JERSEY CITY SKY/WX TMP DP RH WIND PRES REMARKS Newark/Liberty PTSUNNY 70 58 65 N10 30.07R Teterboro PTSUNNY 71 58 63 N7 30.07R Caldwell PTSUNNY 69 63 81 VRB3 30.09R Somerville PTSUNNY 69 65 86 CALM 30.07R Linden CLOUDY 72 55 55 NE3 30.07R Perth Amboy N/A 72 N/A N/A NE7 N/A Sussex CLOUDY 64 61 90 CALM 30.10R Andover N/A 64 61 90 NE5 30.10R Trenton PTSUNNY 69 63 81 NE5 30.07R Millville SUNNY 74 71 91 NE5 30.05R Atlantic City SUNNY 72 69 90 NE5 30.05R Wrightstown MOSUNNY 68 65 92 NE3 30.04R Toms River SUNNY 69 65 86 N3 30.07R Belmar SUNNY 70 62 76 NE6 30.08R $$ PAZ047>061-062-071-171300- EASTERN PENNSYLVANIA CITY SKY/WX TMP DP RH WIND PRES REMARKS Philadelphia MOSUNNY 74 63 68 NE7 30.06R Allentown SUNNY 69 61 75 CALM 30.08R Scranton SUNNY 62 58 86 E3 30.10R $$ CTZ002-004>006-009-010-012-RIZ004-006-007-MAZ004-011-015-171300- SOUTHERN NEW ENGLAND IN CT CITY SKY/WX TMP DP RH WIND PRES REMARKS Bradley INTL PTSUNNY 63 56 78 CALM 30.09R Hartford SUNNY 66 57 72 NE3 30.09R Danbury SUNNY 65 59 81 CALM 30.11R Wtrbury/Oxford MOSUNNY 63 54 72 NE3 30.11R Norwalk Harbor N/A 64 N/A N/A N8 N/A Bridgeport MOSUNNY 69 55 60 NE8 30.08R Meriden SUNNY 64 58 80 NW5 30.09R New Haven MOSUNNY 68 57 68 N7 30.09R Chester NOT AVBL Groton SUNNY 68 54 60 N5 30.07R Wilimantic SUNNY 61 59 93 CALM 30.09R IN RI CITY SKY/WX TMP DP RH WIND PRES REMARKS Providence PTSUNNY 68 51 54 N6 30.09R Block Island SUNNY 68 55 63 NE6 30.08R Westerly SUNNY 68 53 58 N7 30.08R IN MA CITY SKY/WX TMP DP RH WIND PRES REMARKS Boston PTSUNNY 67 49 52 W7 30.07R Worcester CLOUDY 62 48 60 NW6 30.09S Westfield SUNNY 61 57 87 N3 30.09R Provincetown MOSUNNY 67 57 70 NW5 30.07R Nantucket MOSUNNY 69 61 75 NE7 30.06R $$ ANZ330-335-338-340-345-350-353-355-171300- COASTAL MARINE OBSERVATIONS STATION/POSITION TIME SKY/WX TEMP WIND PRES VSBY WAVE AIR SEA DIR/SP/G HT/PER (UTC) (F) (DEG/KT/KT) (MB) (MI) (FT/S) NY HARB ENTRANCE 1150 72 75 40/ 12/ 14 1017.6 2/ 9 GREAT SOUTH BAY 1130 71 77 50/ 10/ 14 N/A 23 SSW MONTAUK P 1050 71 71 1017.5 3/ 9 15 E BARNEGAT LI 1130 76 N/A 2/ 9 HUDSON CANYON 1050 74 74 270/ 2/ 2 1016.3 2/10 KINGS POINT 1130 69 73 70/ 5/ 6 1018.2 EXECUTION ROCKS NOT AVBL WESTERN LI SOUND NOT AVBL CENTRAL LI SOUND NOT AVBL EASTERN LI SOUND NOT AVBL ROBBINS REEF 1148 20/ 6/ 9 1018.9 $$ >>>>>>>>>>>>>>>>>>>>>>>>>>>> KEY <<<<<<<<<<<<<<<<<<<<<<<<<<< > < > SKY/WX - Sky Condition/Present Weather < > TMP - Temperature in Fahrenheit < > DP - Dew Point in Fahrenheit < > RH - Relative Humidity in Percent < > WIND - Direction (from) and Speed in MPH < > PRES - Mean Sea Level Pressure (inches of Hg) < > WCI - Wind Chill Index < > VSB - VISIBILITY IN MILES < > HX - HEAT INDEX < > TC - TEMPERATURE IN CELSIUS < > VRB - VARIABLE WIND DIRECTION < > < >>>>>>>>>>>>>>>>>>>>>>>>>>>> KEY <<<<<<<<<<<<<<<<<<<<<<<<<<<

USA.gov is the U.S. government's official web portal to all federal, state and local government web resources and services.